| time (UTC) | temp F | wind direction | speed MPH | gust MPH | rain 1hr in | rain 24hr in | rain mn in | humidity % | barometer mb |
| 20260506093055 | 60 | 275 | 5.0 | 0.0 | 0.00 | 0.00 | 0.00 | 47 | 1012.6 |
| 20260506091551 | 58 | 223 | 3.0 | 0.0 | 0.00 | 0.00 | 0.00 | 48 | 1012.7 |
| 20260506090047 | 59 | 162 | 5.0 | 0.0 | 0.00 | 0.00 | 0.00 | 45 | 1013.0 |
| 20260506084546 | 60 | 265 | 7.0 | 0.0 | 0.00 | 0.00 | 0.00 | 46 | 1012.9 |
| 20260506083047 | 60 | 286 | 5.0 | 0.0 | 0.00 | 0.00 | 0.00 | 46 | 1013.1 |
| 20260506081549 | 60 | 225 | 3.0 | 0.0 | 0.00 | 0.00 | 0.00 | 45 | 1013.1 |
| 20260506073039 | 60 | 229 | 7.0 | 0.0 | 0.00 | 0.00 | 0.00 | 45 | 1013.1 |
| 20260506071547 | 60 | 325 | 1.0 | 0.0 | 0.00 | 0.00 | 0.00 | 47 | 1013.0 |
| 20260506061508 | 61 | 293 | 8.0 | 0.0 | 0.00 | 0.00 | 0.00 | 44 | 1012.7 |
| 20260506044502 | 62 | 317 | 10.0 | 0.0 | 0.00 | 0.00 | 0.00 | 42 | 1012.0 |
| 20260506043004 | 62 | 288 | 8.0 | 0.0 | 0.00 | 0.00 | 0.00 | 41 | 1012.1 |
| 20260506041600 | 62 | 241 | 10.0 | 0.0 | 0.00 | 0.00 | 0.00 | 41 | 1011.9 |
| 20260506040100 | 62 | 294 | 12.0 | 0.0 | 0.00 | 0.00 | 0.00 | 41 | 1011.7 |
| 20260506034555 | 63 | 274 | 12.0 | 0.0 | 0.00 | 0.00 | 0.00 | 40 | 1011.5 |
| 20260506033055 | 63 | 296 | 12.0 | 0.0 | 0.00 | 0.00 | 0.00 | 40 | 1011.2 |
| 20260506031601 | 63 | 273 | 13.0 | 0.0 | 0.00 | 0.00 | 0.00 | 39 | 1011.0 |
| 20260506030111 | 63 | 257 | 13.0 | 0.0 | 0.00 | 0.00 | 0.00 | 38 | 1010.9 |
| 20260506024554 | 63 | 280 | 10.0 | 0.0 | 0.00 | 0.00 | 0.00 | 37 | 1010.7 |
| 20260506023055 | 63 | 269 | 12.0 | 0.0 | 0.00 | 0.00 | 0.00 | 35 | 1010.6 |
| 20260506021553 | 63 | 269 | 12.0 | 0.0 | 0.00 | 0.00 | 0.00 | 36 | 1010.5 |
| 20260506020052 | 64 | 248 | 12.0 | 0.0 | 0.00 | 0.00 | 0.00 | 36 | 1010.4 |
| 20260506014558 | 64 | 269 | 14.0 | 0.0 | 0.00 | 0.00 | 0.00 | 36 | 1010.3 |
| 20260506013051 | 64 | 231 | 15.0 | 0.0 | 0.00 | 0.00 | 0.00 | 36 | 1010.2 |
| 20260506011556 | 65 | 263 | 16.0 | 0.0 | 0.00 | 0.00 | 0.00 | 36 | 1010.5 |
| 20260506010055 | 65 | 297 | 14.0 | 0.0 | 0.00 | 0.00 | 0.00 | 34 | 1010.8 |
| 20260506004623 | 66 | 272 | 10.0 | 0.0 | 0.00 | 0.00 | 0.00 | 33 | 1010.6 |
| 20260506003049 | 66 | 247 | 14.0 | 0.0 | 0.00 | 0.00 | 0.00 | 34 | 1010.4 |
| 20260506001548 | 67 | 243 | 12.0 | 0.0 | 0.00 | 0.00 | 0.00 | 33 | 1010.2 |
| 20260506000049 | 67 | 300 | 12.0 | 0.0 | 0.00 | 0.00 | 0.00 | 34 | 1010.2 |
| 20260505234610 | 67 | 264 | 12.0 | 0.0 | 0.00 | 0.00 | 0.00 | 33 | 1010.2 |
| 20260505233046 | 68 | 233 | 12.0 | 0.0 | 0.00 | 0.00 | 0.00 | 32 | 1010.1 |
| 20260505231549 | 68 | 277 | 11.0 | 0.0 | 0.00 | 0.00 | 0.00 | 30 | 1010.0 |
| 20260505230050 | 68 | 271 | 14.0 | 0.0 | 0.00 | 0.00 | 0.00 | 32 | 1010.1 |
| 20260505224546 | 68 | 249 | 11.0 | 0.0 | 0.00 | 0.00 | 0.00 | 32 | 1010.2 |
| 20260505223058 | 68 | 300 | 8.0 | 0.0 | 0.00 | 0.00 | 0.00 | 33 | 1010.5 |
| 20260505221557 | 68 | 283 | 9.0 | 0.0 | 0.00 | 0.00 | 0.00 | 33 | 1010.8 |
| 20260505220048 | 68 | 231 | 6.0 | 0.0 | 0.00 | 0.00 | 0.00 | 33 | 1010.9 |
| 20260505214552 | 67 | 236 | 11.0 | 0.0 | 0.00 | 0.00 | 0.00 | 34 | 1010.9 |
| 20260505213043 | 68 | 254 | 12.0 | 0.0 | 0.00 | 0.00 | 0.00 | 35 | 1011.0 |
| 20260505211540 | 67 | 291 | 13.0 | 0.0 | 0.00 | 0.00 | 0.00 | 36 | 1011.1 |
| 20260505210040 | 67 | 282 | 10.0 | 0.0 | 0.00 | 0.00 | 0.00 | 38 | 1011.3 |
| 20260505204538 | 67 | 273 | 11.0 | 0.0 | 0.00 | 0.00 | 0.00 | 38 | 1011.2 |
| 20260505203037 | 66 | 285 | 9.0 | 0.0 | 0.00 | 0.00 | 0.00 | 38 | 1011.3 |
| 20260505201537 | 66 | 246 | 11.0 | 0.0 | 0.00 | 0.00 | 0.00 | 38 | 1011.3 |
| 20260505200037 | 68 | 250 | 11.0 | 0.0 | 0.00 | 0.00 | 0.00 | 37 | 1011.3 |
| 20260505194537 | 67 | 297 | 13.0 | 0.0 | 0.00 | 0.00 | 0.00 | 40 | 1011.3 |
| 20260505193034 | 67 | 300 | 15.0 | 0.0 | 0.00 | 0.00 | 0.00 | 40 | 1011.2 |
| 20260505191534 | 66 | 311 | 13.0 | 0.0 | 0.00 | 0.00 | 0.00 | 42 | 1011.4 |
| 20260505190037 | 66 | 305 | 13.0 | 0.0 | 0.00 | 0.00 | 0.00 | 42 | 1011.5 |
| 20260505184533 | 66 | 327 | 14.0 | 0.0 | 0.00 | 0.00 | 0.00 | 44 | 1011.4 |
| 20260505183043 | 66 | 270 | 9.0 | 0.0 | 0.00 | 0.00 | 0.00 | 39 | 1011.3 |
| 20260505181537 | 67 | 273 | 10.0 | 0.0 | 0.00 | 0.00 | 0.00 | 41 | 1011.4 |
| 20260505180030 | 67 | 304 | 10.0 | 0.0 | 0.00 | 0.00 | 0.00 | 39 | 1011.3 |
| 20260505174527 | 67 | 316 | 10.0 | 0.0 | 0.00 | 0.00 | 0.00 | 42 | 1011.0 |
| 20260505173029 | 65 | 288 | 12.0 | 0.0 | 0.00 | 0.00 | 0.00 | 42 | 1011.0 |
| 20260505171526 | 65 | 304 | 14.0 | 0.0 | 0.00 | 0.00 | 0.00 | 45 | 1010.7 |
| 20260505170027 | 66 | 198 | 6.0 | 0.0 | 0.00 | 0.00 | 0.00 | 41 | 1010.7 |
| 20260505164522 | 65 | 323 | 10.0 | 0.0 | 0.00 | 0.00 | 0.00 | 43 | 1010.7 |
| 20260505163022 | 65 | 304 | 13.0 | 0.0 | 0.00 | 0.00 | 0.00 | 42 | 1010.5 |
| 20260505161525 | 65 | 314 | 8.0 | 0.0 | 0.00 | 0.00 | 0.00 | 43 | 1010.5 |
| 20260505160110 | 63 | 328 | 8.0 | 0.0 | 0.00 | 0.00 | 0.00 | 45 | 1010.5 |
| 20260505153016 | 63 | 119 | 3.0 | 0.0 | 0.00 | 0.00 | 0.00 | 50 | 1010.6 |
| 20260505151511 | 62 | 75 | 4.0 | 0.0 | 0.00 | 0.00 | 0.00 | 52 | 1010.4 |
| 20260505124605 | 58 | 204 | 5.0 | 0.0 | 0.00 | 0.00 | 0.00 | 60 | 1010.1 |
| 20260505123058 | 57 | 201 | 4.0 | 0.0 | 0.00 | 0.00 | 0.00 | 62 | 1010.0 |
| 20260505121557 | 56 | 264 | 3.0 | 0.0 | 0.00 | 0.00 | 0.00 | 62 | 1009.8 |
| 20260505120108 | 56 | 317 | 2.0 | 0.0 | 0.00 | 0.00 | 0.00 | 62 | 1009.9 |
| 20260505114555 | 56 | 317 | 2.0 | 0.0 | 0.00 | 0.00 | 0.00 | 62 | 1010.0 |
| 20260505113057 | 56 | 317 | 0.0 | 0.0 | 0.00 | 0.00 | 0.00 | 62 | 1010.1 |
| 20260505111552 | 57 | 317 | 0.0 | 0.0 | 0.00 | 0.00 | 0.00 | 61 | 1010.1 |
| 20260505101548 | 58 | 306 | 5.0 | 0.0 | 0.00 | 0.00 | 0.00 | 56 | 1010.3 |
| 20260505100048 | 57 | 327 | 2.0 | 0.0 | 0.00 | 0.00 | 0.00 | 56 | 1010.2 |
| 20260505094546 | 56 | 94 | 0.0 | 0.0 | 0.00 | 0.00 | 0.00 | 54 | 1010.3 |